Terminal Aerodrome Forecast
Issued by NWS Grand Rapids, MI

Home | Current Version | Previous Version | Text Only | Print | Product List | Glossary On
Versions: 1 2 3 4 5 6 7 8 9 10 11 12 13 14 15 16 17 18 19 20 21 22 23 24 25 26 27 28
938
FTUS43 KGRR 221610 AAD
TAFGRR
TAF AMD
KGRR 221610Z 2216/2312 20008KT 3SM BR OVC015
      TEMPO 2216/2218 2SM BR OVC009
     FM221900 20009KT 4SM BR SCT015
     FM222000 21010G18KT 5SM HZ SCT025
     FM230600 23010KT 6SM HZ BKN040
     FM230900 25008KT 4SM BR OVC010=

USA.gov is the U.S. government's official web portal to all federal, state and local government web resources and services.